Regional Weather Roundup
Issued by NWS Portland, ME

Home | Current Version | Previous Version | Text Only | Print | Product List | Glossary On
Versions: 1 2 3 4 5 6 7 8 9 10 11 12 13 14 15 16 17 18 19 20 21 22 23 24 25 26 27 28 29 30 31 32 33 34 35 36 37 38 39 40 41 42 43 44 45 46 47 48 49 50
000
ASUS41 KGYX 280410
RWRGYX
WEATHER ROUNDUP FOR MAINE AND NEW HAMPSHIRE
NATIONAL WEATHER SERVICE GRAY ME
1100 PM EST THU NOV 27 2014

MEZ002-005-006-010-012-015-018-020-021-024-026-027-029-280500-
MAINE

CITY           SKY/WX    TMP DP  RH WIND       PRES   REMARKS
PORTLAND       MOCLDY    30  21  69 N12       30.03S
SANFORD        CLOUDY    28  19  69 N8        30.02S
BAR HARBOR     PTCLDY    25  21  86 N3        30.04S
WISCASSET      PTCLDY    26  21  81 CALM      30.05F
ROCKLAND       CLOUDY    28  21  74 N6        30.02S
FRYEBURG       CLOUDY    25  20  81 CALM      30.02F
LEWISTONAUBURN PTCLDY    21  19  93 CALM      30.02S
AUGUSTA        PTCLDY    23  16  74 N3        30.04R
WATERVILLE     CLEAR     21  12  68 N6        30.01R
BANGOR         PTCLDY    15  11  83 CALM      30.05R
GREENVILLE       N/A     20  15  81 N6        29.94S
MILLINOCKET    PTCLDY    15  11  83 CALM      30.03R
HOULTON        PTCLDY    13  10  88 CALM      29.99R
PRESQUE ISLE   FAIR       9   5  85 CALM      29.99S
FRENCHVILLE    CLEAR     11   7  84 NW3       29.96S
CARIBOU        PTCLDY    12   7  80 CALM      29.99S
$$

NHZ002-005-008-009-011-012-014-280500-
NEW HAMPSHIRE

CITY           SKY/WX    TMP DP  RH WIND       PRES   REMARKS
PORTSMOUTH     FLURRIES  31  24  75 N12       30.00S
ROCHESTER      CLOUDY    29  23  78 N9        30.00S
NASHUA         LGT SNOW  29  26  88 NW10      30.02S FOG     WCI  20
MANCHESTER     LGT SNOW  28  24  85 N6        30.00S FOG
CONCORD        NOT AVBL
LACONIA        CLOUDY    28  25  86 CALM      29.99S
PLYMOUTH       CLOUDY    28  25  89 CALM      30.01S
BERLIN         CLOUDY    20  17  88 CALM      29.99S
WHITEFIELD     CLOUDY    24  19  81 CALM      29.99S
JAFFREY        LGT SNOW  25  23  92 CALM      29.98S FOG
LEBANON        CLOUDY    28  22  78 CALM      30.02S
MT WASHINGTON  FOG        5   5 100 SE17        N/A  VSB 1/16WCI -14
$$

VTZ005-007-008-280500-
VERMONT

CITY           SKY/WX    TMP DP  RH WIND       PRES   REMARKS
ST JOHNSBURY     N/A     26  21  81 MISG      30.01S
MONTPELIER     CLOUDY    23  20  88 CALM      30.04S
BURLINGTON     CLOUDY    26  18  71 E5        30.05S
$$

MAZ007-012-024-CTZ003-RIZ002-NYZ038-NYZ072-280500-
SOUTHERN NEW ENGLAND AND NY

CITY           SKY/WX    TMP DP  RH WIND       PRES   REMARKS
BOSTON         LGT SNOW  31  27  85 NW9       30.01S FOG
WORCESTER      CLOUDY    27  24  89 NW6       29.96S
NANTUCKET      LGT RAIN  39  36  89 N5        29.96S FOG
PROVIDENCE     CLOUDY    32  29  88 N8        30.01R
HARTFORD       CLOUDY    33  26  75 N7        30.02S
ALBANY         LGT SNOW  29  26  89 N6        30.06S FOG
NEW YORK CITY  CLOUDY    36  26  67 NW15      30.06R
$$

ANZ081-ANZ082-ANZ150-NHZ014-MEZ023>029-280500-
COASTAL MARINE OBSERVATIONS

STATION/POSITION TIME  TEMP    WIND        PRES    WAVE
                       AIR SEA DIR/SP/G            HT/PER
                 (UTC) (F)     (DEG/KT/KT) (MB)    (FT/S)
MOUNT DESERT ROC 0400   31                 1015.8F
MATINICUS ROCK   0400           20/ 12/ 14 1015.6F
PORTLAND WX BUOY 0350   33 49   30/ 19/ 21 1016.0F   5/12
WELLS            0300   31 42   10/ 10/ 12 1015.7R
ISLE OF SHOALS   0400   35      30/ 16/ 19 1015.1R
JEFFREYS LEDGE   0321      51                N/A     6/ 8
CASHES LEDGE BUO 0350   37 50   30/ 14/ 16 1014.8F   6/11
$$

.............KEY..............
   WCI - WIND CHILL
   TC  - TEMPERATURE IN CELSIUS
   VSB - VISIBILITY IN MILES
   HX  - HEAT INDEX
   FAIR- INDICATES FEW OR NO CLOUDS BELOW 12,000 FT, WITH NO
         SIGNIFICANT WEATHER AND/OR OBSTRUCTIONS TO VISIBILITY.




USA.gov is the U.S. government's official web portal to all federal, state and local government web resources and services.